Portada
METAR-TAF:

METAR-TAF

Aeroports :

Aitkin Municipal Airport (Steve Kurtz Field)

Aitkin, Minnesota, Estats Units d'Amèrica

latitud: 46-33N, longitud: 093-41W, altitud: 367 m

Observació

L'informe es va fer fa 21 minuts, a les 19:15 UTC
Vent 5 kt del Sud-Oest
Temperatura -2°C
Humitat 63%
Pressió 1014 hPa
Visibilitat: 16.1 km
Cel clar

METAR: KAIT 101915Z AUTO 22005KT 10SM CLR M02/M08 A2994 RMK AO2

Hora: 13:36 (19:36 UTC)


TAF: manca

Observacions i pronòstics meteorològics de més de 4000 aeroports (METAR i TAF).

Les estacions disponibles són els punts grocs i vermells al mapa.

Posi el ratolí al punt desitjat per veure el nom de l'estació.

Feu clic per veure les observacions i els pronòstics meteorològics.

Per canviar el mapa: feu clic els botons verds amb una creu de color negre per apropar; al botó verd amb un guió per allunyar la imatge; o en les fletxes verdes per a mapes adjacents.


METAR-TAF: